Pamplona, Spain

3:41 PM CEST on August 16, 2017 (GMT +0200)
Pamplona

Weather History for LEPP - November, 2012

Change the Weather History Date:

Friday, November 23, 2012

  Actual Average Record
Temperature  
Mean Temperature 48 °F -  
Max Temperature 60 °F 47 °F 69 °F (2014)
Min Temperature 37 °F 36 °F 30 °F (2015)
Degree Days  
Heating Degree Days 16    
Moisture  
Dew Point 43 °F    
Average Humidity 80    
Maximum Humidity 100    
Minimum Humidity 59    
Precipitation  
Precipitation 0.00 in - - ()
Sea Level Pressure  
Sea Level Pressure 30.12 in    
Wind  
Wind Speed 2 mph ()    
Max Wind Speed 10 mph    
Max Gust Speed -    
Visibility 5.7 miles    
Events      
Averages and records for this station are not official NWS values.
T = Trace of Precipitation, MM = Missing Value Source: Averaged Metar Reports

Daily Weather History Graph

Daily Weather History Graph

Search for Another Location

Airport or City:

Trip Planner

Search our weather history database for the weather conditions in past years. The results will help you decide how hot, cold, wet, or windy it might be!

Date:

Astronomy

Nov. 23, 2012 Rise Set
Actual Time 8:08 AM CET 5:37 PM CET
Civil Twilight 7:37 AM CET 6:08 PM CET
Nautical Twilight 7:02 AM CET 6:43 PM CET
Astronomical Twilight 6:28 AM CET 7:16 PM CET
Moon 2:50 PM CET (11/23) 3:07 AM CET (11/23)
Length of Visible Light 10h 30m
Length of Day
9h 28m
Waxing Gibbous, 77% of the Moon is Illuminated
Nov 23
Waxing Gibbous
Nov 28
Full
Dec 6
Last Quarter
Dec 13
New
Dec 20
First Quarter

Hourly Weather History & Observations

Time (CET) Temp. Dew Point Humidity Pressure Visibility Wind Dir Wind Speed Gust Speed Precip Events Conditions
12:00 AM 42.8 °F 41.0 °F 93% 30.15 in - North 1.2 mph - N/A   Clear
5:30 AM 39.2 °F 39.2 °F 100% 30.12 in 4.3 mi West 2.3 mph - N/A   Unknown
6:00 AM 39.2 °F 39.2 °F 100% 30.15 in 4.3 mi Calm Calm - N/A   Unknown
6:30 AM 39.2 °F 39.2 °F 100% 30.12 in 5.6 mi Calm Calm - N/A   Unknown
7:00 AM 37.4 °F 37.4 °F 100% 30.12 in 4.3 mi SSE 2.3 mph - N/A   Unknown
7:30 AM 41.0 °F 41.0 °F 100% 30.15 in 5.0 mi Calm Calm - N/A   Unknown
8:00 AM 37.4 °F 37.4 °F 100% 30.15 in 5.0 mi Calm Calm - N/A   Unknown
8:30 AM 37.4 °F 37.4 °F 100% 30.15 in 4.3 mi Calm Calm - N/A   Unknown
9:00 AM 37.4 °F 37.4 °F 100% 30.15 in 4.3 mi Calm Calm - N/A   Unknown
9:30 AM 41.0 °F 39.2 °F 93% 30.15 in 4.3 mi Calm Calm - N/A   Unknown
10:00 AM 44.6 °F 42.8 °F 93% 30.18 in 4.3 mi Calm Calm - N/A   Unknown
10:30 AM 48.2 °F 44.6 °F 87% 30.15 in 5.6 mi Calm Calm - N/A   Unknown
11:00 AM 48.2 °F 42.8 °F 82% 30.15 in - Variable 2.3 mph - N/A   Clear
11:30 AM 50.0 °F 44.6 °F 82% 30.15 in - Variable 2.3 mph - N/A   Clear
12:00 PM 50.0 °F 44.6 °F 82% 30.15 in - Variable 2.3 mph - N/A   Clear
12:30 PM 53.6 °F 44.6 °F 72% 30.15 in - Variable 2.3 mph - N/A   Clear
1:00 PM 55.4 °F 46.4 °F 72% 30.12 in - SE 1.2 mph - N/A   Clear
1:30 PM 55.4 °F 46.4 °F 72% 30.12 in - South 3.5 mph - N/A   Clear
2:00 PM 57.2 °F 46.4 °F 67% 30.12 in 6.2 mi South 8.1 mph - N/A   Partly Cloudy
2:30 PM 59.0 °F 46.4 °F 63% 30.09 in 6.2 mi South 10.4 mph - N/A   Partly Cloudy
3:00 PM 60.8 °F 46.4 °F 59% 30.09 in 6.2 mi South 9.2 mph - N/A   Partly Cloudy
3:30 PM 59.0 °F 46.4 °F 63% 30.09 in 6.2 mi South 8.1 mph - N/A   Partly Cloudy
4:00 PM 59.0 °F 46.4 °F 63% 30.09 in 6.2 mi Variable 2.3 mph - N/A   Partly Cloudy
4:30 PM 57.2 °F 44.6 °F 63% 30.09 in 6.2 mi South 6.9 mph - N/A   Partly Cloudy
5:00 PM 57.2 °F 44.6 °F 63% 30.09 in 6.2 mi SE 6.9 mph - N/A   Partly Cloudy
5:30 PM 55.4 °F 44.6 °F 67% 30.09 in 6.2 mi Variable 1.2 mph - N/A   Partly Cloudy
6:00 PM 53.6 °F 44.6 °F 72% 30.09 in 6.2 mi Variable 1.2 mph - N/A   Partly Cloudy
6:30 PM 51.8 °F 46.4 °F 82% 30.09 in 6.2 mi SE 4.6 mph - N/A   Partly Cloudy
7:00 PM 53.6 °F 44.6 °F 72% 30.09 in 6.2 mi ESE 5.8 mph - N/A   Partly Cloudy
7:30 PM 53.6 °F 44.6 °F 72% 30.09 in 6.2 mi East 9.2 mph - N/A   Partly Cloudy
8:00 PM 53.6 °F 44.6 °F 72% 30.09 in 6.2 mi SE 6.9 mph - N/A   Partly Cloudy
8:30 PM 51.8 °F 44.6 °F 76% 30.09 in 6.2 mi SSE 3.5 mph - N/A   Partly Cloudy
9:00 PM 53.6 °F 42.8 °F 67% 30.09 in 6.2 mi Variable 2.3 mph - N/A   Partly Cloudy
9:30 PM 50.0 °F 44.6 °F 82% 30.09 in 6.2 mi SE 1.2 mph - N/A   Partly Cloudy
10:00 PM 53.6 °F 44.6 °F 72% 30.09 in 6.2 mi NW 1.2 mph - N/A   Partly Cloudy
10:30 PM 50.0 °F 44.6 °F 82% 30.09 in 6.2 mi Variable 2.3 mph - N/A   Partly Cloudy
11:00 PM 50.0 °F 44.6 °F 82% 30.09 in 6.2 mi SE 4.6 mph - N/A   Partly Cloudy
11:30 PM 51.8 °F 44.6 °F 76% 30.09 in 6.2 mi SSE 5.8 mph - N/A   Partly Cloudy